Language: 


Des rapports , des résumés tant et plus, au choix de chacun....


Données statistiques de la station
Quotidien Rapport Juillet 27, 2017 Unités:  Anglais    Métrique   les deux
« Précédent Jour
Suivant Jour »
Quotidien Hebdomadaire Mensuel Annuel Actuel
  Haut: Bas: Moyen:
Température: 75.7 °F 58.8 °F 66 °F
Pt de rosée: 64.4 °F 48.2 °F 55.9 °F
Humidité: 96 % 38 % 72 %
Vitesse du vent: 18.6 mph 0 mph 7.6 mph
Rafales: 22.4 mph - -
Vent:- - WSW
Pression: 29.8 in 29.7 in -
Précipitation: 0.01 in    
Historical Graphs
 
 
Données statistiques pour Juillet 27, 2017
Heure Température Point de rosée Pression Vent Vitesse du vent Refales Humidité Pluie (taux horaire)
00:00 66.9 °F 64.4 °F 29.7 in WSW 6.3 mph 10.1 mph 92 % 0 in
00:05 66.7 °F 64.4 °F 29.7 in West 5.6 mph 8.1 mph 92 % 0 in
00:10 66.7 °F 64.4 °F 29.7 in WSW 5.8 mph 8.7 mph 92 % 0 in
00:15 66.7 °F 64.4 °F 29.7 in West 5.6 mph 10.3 mph 92 % 0 in
00:20 66.7 °F 64.4 °F 29.7 in WSW 7.6 mph 10.3 mph 92 % 0 in
00:25 66.7 °F 64.4 °F 29.7 in WSW 7.6 mph 9.4 mph 92 % 0 in
00:30 66.7 °F 64.4 °F 29.7 in WSW 4 mph 9.4 mph 92 % 0 in
00:35 66.7 °F 64.4 °F 29.7 in WSW 7.6 mph 13.4 mph 92 % 0 in
00:40 66.6 °F 64.4 °F 29.7 in WSW 7.8 mph 13.4 mph 93 % 0 in
00:45 66.4 °F 64.4 °F 29.7 in WSW 6 mph 10.7 mph 93 % 0 in
00:50 66 °F 64.4 °F 29.7 in West 13.4 mph 14.8 mph 94 % 0 in
00:55 65.7 °F 64.4 °F 29.7 in West 9.6 mph 14.8 mph 94 % 0 in
00:56 65.5 °F 64.4 °F 29.7 in West 13.4 mph 14.8 mph 94 % 0 in
01:01 65.3 °F 64.4 °F 29.7 in WSW 7.8 mph 14.1 mph 94 % 0 in
01:06 64.9 °F 64.4 °F 29.7 in West 3.4 mph 13.4 mph 95 % 0 in
01:11 64.8 °F 64.4 °F 29.7 in West 13.4 mph 13.4 mph 95 % 0 in
01:16 64.8 °F 62.6 °F 29.7 in WSW 10.1 mph 14.8 mph 94 % 0.01 in
01:21 64.8 °F 62.6 °F 29.7 in SW 10.1 mph 14.8 mph 94 % 0.01 in
01:26 64.6 °F 62.6 °F 29.7 in WSW 8.1 mph 13 mph 95 % 0.01 in
01:31 64.6 °F 62.6 °F 29.7 in West 9.6 mph 13.2 mph 95 % 0.01 in
01:36 64.6 °F 62.6 °F 29.7 in WSW 8.1 mph 13.2 mph 95 % 0.01 in
01:41 64.6 °F 62.6 °F 29.7 in WSW 8.9 mph 13 mph 95 % 0.01 in
01:46 64.6 °F 62.6 °F 29.7 in WSW 8.7 mph 14.1 mph 94 % 0.01 in
01:51 64.6 °F 62.6 °F 29.7 in West 9.6 mph 14.1 mph 94 % 0.01 in
01:56 64.6 °F 62.6 °F 29.7 in West 7.6 mph 12.5 mph 94 % 0.01 in
02:01 64.4 °F 62.6 °F 29.7 in West 7.6 mph 13 mph 94 % 0.01 in
02:06 64.4 °F 62.6 °F 29.7 in WSW 6.5 mph 13 mph 94 % 0.01 in
02:11 64.4 °F 62.6 °F 29.7 in WSW 8.1 mph 12.1 mph 94 % 0.01 in
02:16 64.4 °F 62.6 °F 29.7 in West 5.8 mph 11 mph 94 % 0 in
02:21 64.2 °F 62.6 °F 29.7 in WSW 6 mph 8.5 mph 94 % 0 in
02:22 64.2 °F 62.6 °F 29.7 in West 6 mph 8.5 mph 94 % 0 in
02:27 64.2 °F 62.6 °F 29.7 in West 7.4 mph 7.8 mph 94 % 0 in
02:32 64 °F 62.6 °F 29.7 in West 9.6 mph 10.1 mph 94 % 0 in
02:37 64 °F 62.6 °F 29.7 in SSW 7.4 mph 13 mph 94 % 0 in
02:43 64 °F 62.6 °F 29.7 in West 7.8 mph 13 mph 94 % 0 in
02:48 64 °F 62.6 °F 29.7 in West 10.5 mph 13 mph 93 % 0 in
02:53 63.9 °F 62.6 °F 29.7 in West 10.1 mph 14.8 mph 93 % 0 in
02:58 63.5 °F 62.6 °F 29.7 in West 8.1 mph 14.8 mph 93 % 0 in
03:03 63.1 °F 60.8 °F 29.7 in West 6.3 mph 19 mph 91 % 0 in
03:08 62.8 °F 59 °F 29.7 in WSW 12.1 mph 19 mph 90 % 0 in
03:13 62.4 °F 59 °F 29.7 in West 8.7 mph 13 mph 90 % 0 in
03:18 62.2 °F 59 °F 29.7 in WSW 7.6 mph 13.6 mph 90 % 0 in
03:23 62.2 °F 59 °F 29.7 in West 7.6 mph 15.7 mph 90 % 0 in
03:27 62.1 °F 59 °F 29.7 in West 8.5 mph 15.7 mph 90 % 0 in
03:32 61.7 °F 59 °F 29.7 in SSW 8.1 mph 11 mph 91 % 0 in
03:37 61.7 °F 59 °F 29.7 in WSW 6.5 mph 12.8 mph 91 % 0 in
03:42 61.5 °F 59 °F 29.7 in WSW 5.4 mph 12.8 mph 91 % 0 in
03:48 61.3 °F 59 °F 29.7 in WSW 6 mph 11 mph 92 % 0 in
03:53 61 °F 59 °F 29.7 in West 6 mph 10.7 mph 92 % 0 in
03:58 61 °F 59 °F 29.7 in WSW 6.5 mph 8.1 mph 92 % 0 in
04:03 60.8 °F 59 °F 29.7 in West 7.6 mph 8.1 mph 92 % 0 in
04:08 60.6 °F 59 °F 29.7 in Calm   7.6 mph 93 % 0 in
04:13 60.4 °F 59 °F 29.7 in WSW 5.6 mph 8.1 mph 93 % 0 in
04:18 60.4 °F 59 °F 29.7 in WSW 6.5 mph 8.1 mph 94 % 0 in
04:23 60.1 °F 59 °F 29.7 in West 4.5 mph 6.5 mph 94 % 0 in
04:28 60.1 °F 59 °F 29.7 in WSW 6 mph 6.5 mph 94 % 0 in
04:33 59.9 °F 59 °F 29.7 in Calm   6.5 mph 94 % 0 in
04:38 59.9 °F 59 °F 29.7 in West 2.7 mph 4.9 mph 94 % 0 in
04:43 59.7 °F 57.2 °F 29.7 in Calm   6 mph 94 % 0 in
04:48 59.7 °F 57.2 °F 29.7 in Calm   6 mph 94 % 0 in
04:53 59.5 °F 57.2 °F 29.7 in Calm   4.9 mph 94 % 0 in
04:58 59.5 °F 57.2 °F 29.7 in Calm   4.9 mph 94 % 0 in
05:03 59.4 °F 59 °F 29.7 in West 4.9 mph 4.9 mph 95 % 0 in
05:08 59.4 °F 59 °F 29.7 in Calm   4.9 mph 95 % 0 in
05:13 59.4 °F 59 °F 29.7 in Calm   5.4 mph 95 % 0 in
05:18 59.4 °F 59 °F 29.7 in Calm   5.4 mph 95 % 0 in
05:23 59.4 °F 59 °F 29.7 in SW 5.4 mph 5.8 mph 95 % 0 in
05:28 59.7 °F 59 °F 29.7 in WSW 4.9 mph 6.3 mph 96 % 0 in
05:33 59.7 °F 59 °F 29.7 in SW 3.8 mph 6.5 mph 96 % 0 in
05:39 59.9 °F 59 °F 29.7 in SW 2.7 mph 6.5 mph 96 % 0 in
05:44 59.9 °F 59 °F 29.7 in WSW 3.1 mph 5.6 mph 96 % 0 in
05:49 59.9 °F 59 °F 29.7 in SW 5.4 mph 5.6 mph 96 % 0 in
05:54 59.9 °F 59 °F 29.7 in SW 4.3 mph 8.1 mph 96 % 0 in
05:59 60.1 °F 59 °F 29.7 in WSW 3.6 mph 8.1 mph 96 % 0 in
06:04 59.9 °F 59 °F 29.7 in SW 3.8 mph 6.7 mph 96 % 0 in
06:09 59.9 °F 59 °F 29.7 in SW 4.3 mph 6.3 mph 96 % 0 in
06:14 59.9 °F 59 °F 29.7 in SW 1.1 mph 6.3 mph 96 % 0 in
06:19 59.9 °F 59 °F 29.7 in WSW 4.9 mph 6.3 mph 95 % 0 in
06:24 59.7 °F 59 °F 29.7 in WSW 4 mph 6.5 mph 95 % 0 in
06:29 59.7 °F 59 °F 29.8 in WSW 5.4 mph 8.7 mph 96 % 0 in
06:34 59.7 °F 59 °F 29.8 in SW 1.1 mph 8.7 mph 95 % 0 in
06:39 59.7 °F 59 °F 29.8 in WSW 2.9 mph 5.4 mph 95 % 0 in
06:44 59.7 °F 59 °F 29.8 in WSW 3.6 mph 5.6 mph 95 % 0 in
06:49 59.7 °F 59 °F 29.8 in Calm   5.6 mph 95 % 0 in
06:54 59.7 °F 59 °F 29.8 in WSW 5.4 mph 6 mph 96 % 0 in
06:55 59.7 °F 59 °F 29.8 in WSW 4 mph 6 mph 96 % 0 in
07:00 59.7 °F 59 °F 29.8 in West 1.1 mph 6 mph 96 % 0 in
07:05 59.7 °F 59 °F 29.8 in WSW 2.9 mph 5.8 mph 96 % 0 in
07:10 59.9 °F 59 °F 29.7 in WSW 0.9 mph 5.4 mph 96 % 0 in
07:15 60.1 °F 59 °F 29.7 in Calm   5.8 mph 96 % 0 in
07:20 60.1 °F 59 °F 29.7 in WSW 4 mph 5.8 mph 95 % 0 in
07:25 60.3 °F 59 °F 29.8 in Calm   5.8 mph 95 % 0 in
07:30 60.4 °F 59 °F 29.8 in Calm   5.8 mph 95 % 0 in
07:35 60.4 °F 59 °F 29.8 in WSW 2.5 mph 6.5 mph 95 % 0 in
07:40 60.6 °F 59 °F 29.8 in WSW 3.8 mph 6.5 mph 95 % 0 in
07:46 60.8 °F 59 °F 29.8 in SSW 4.3 mph 8.1 mph 94 % 0 in
07:51 61 °F 59 °F 29.8 in West 4.3 mph 8.1 mph 94 % 0 in
07:56 61.2 °F 59 °F 29.8 in WSW 3.8 mph 6.5 mph 93 % 0 in
08:01 61.3 °F 59 °F 29.8 in WSW 3.4 mph 7.2 mph 93 % 0 in
08:06 61.5 °F 59 °F 29.8 in SSW 3.8 mph 7.2 mph 93 % 0 in
08:07 61.5 °F 59 °F 29.8 in SSW 2.5 mph 7.2 mph 93 % 0 in
08:12 61.7 °F 60.8 °F 29.7 in WSW 4.5 mph 6.5 mph 93 % 0 in
08:17 61.9 °F 59 °F 29.7 in WSW 2.7 mph 6 mph 92 % 0 in
08:22 61.9 °F 59 °F 29.7 in WSW 4.9 mph 6.3 mph 92 % 0 in
08:27 62.1 °F 59 °F 29.8 in WSW 4 mph 8.7 mph 92 % 0 in
08:32 62.6 °F 60.8 °F 29.8 in West 3.6 mph 8.7 mph 91 % 0 in
08:37 63 °F 60.8 °F 29.8 in West 4 mph 8.7 mph 90 % 0 in
08:42 63.3 °F 60.8 °F 29.8 in West 7.2 mph 8.7 mph 90 % 0 in
08:47 64 °F 60.8 °F 29.8 in WSW 6.5 mph 7.8 mph 89 % 0 in
08:52 63.9 °F 59 °F 29.8 in West 7.8 mph 10.7 mph 86 % 0 in
08:57 63.9 °F 59 °F 29.8 in WSW 7.6 mph 10.7 mph 85 % 0 in
09:02 64.2 °F 59 °F 29.8 in West 7.6 mph 13 mph 83 % 0 in
09:07 64.8 °F 59 °F 29.8 in West 4 mph 13 mph 83 % 0 in
09:12 64.2 °F 59 °F 29.8 in West 7.8 mph 9.6 mph 81 % 0 in
09:17 64.2 °F 59 °F 29.8 in West 10.3 mph 10.3 mph 80 % 0 in
09:22 65.1 °F 59 °F 29.8 in WSW 5.4 mph 11.9 mph 80 % 0 in
09:27 65.5 °F 59 °F 29.8 in SW 10.5 mph 12.1 mph 79 % 0 in
09:32 65.5 °F 59 °F 29.8 in West 10.7 mph 12.8 mph 78 % 0 in
09:37 65.1 °F 57.2 °F 29.8 in West 8.5 mph 12.8 mph 77 % 0 in
09:42 64.9 °F 57.2 °F 29.8 in WSW 11 mph 12.8 mph 75 % 0 in
09:47 65.1 °F 57.2 °F 29.8 in WSW 6.3 mph 12.8 mph 76 % 0 in
09:52 65.3 °F 57.2 °F 29.8 in WSW 5.4 mph 10.7 mph 76 % 0 in
09:58 65.1 °F 57.2 °F 29.8 in West 10.3 mph 13 mph 76 % 0 in
10:03 65.1 °F 57.2 °F 29.8 in WSW 6.5 mph 13 mph 76 % 0 in
10:08 65.1 °F 57.2 °F 29.8 in WSW 8.7 mph 10.7 mph 76 % 0 in
10:13 65.3 °F 59 °F 29.8 in WSW 6.3 mph 10.3 mph 77 % 0 in
10:18 65.3 °F 57.2 °F 29.8 in WSW 8.7 mph 11.4 mph 76 % 0 in
10:23 65.5 °F 59 °F 29.8 in WSW 7.6 mph 11.4 mph 77 % 0 in
10:28 65.7 °F 57.2 °F 29.8 in West 6.5 mph 10.7 mph 75 % 0 in
10:33 66 °F 59 °F 29.8 in West 6.3 mph 10.5 mph 76 % 0 in
10:39 66.2 °F 59 °F 29.8 in West 8.1 mph 8.9 mph 76 % 0 in
10:44 66 °F 57.2 °F 29.8 in West 8.7 mph 10.7 mph 73 % 0 in
10:49 66 °F 57.2 °F 29.8 in WSW 8.5 mph 10.7 mph 73 % 0 in
10:54 66 °F 57.2 °F 29.8 in WSW 9.8 mph 13.6 mph 71 % 0 in
10:59 66.2 °F 55.4 °F 29.8 in SW 5.6 mph 13.6 mph 70 % 0 in
11:04 66.7 °F 57.2 °F 29.8 in West 3.6 mph 10.5 mph 71 % 0 in
11:09 67.3 °F 57.2 °F 29.8 in WSW 6 mph 10.3 mph 71 % 0 in
11:14 67.8 °F 57.2 °F 29.8 in WSW 5.8 mph 8.9 mph 70 % 0 in
11:19 68.5 °F 57.2 °F 29.8 in WSW 5.6 mph 8.7 mph 69 % 0 in
11:24 69.1 °F 57.2 °F 29.8 in WSW 9.8 mph 9.8 mph 67 % 0 in
11:29 69.1 °F 57.2 °F 29.8 in WSW 8.9 mph 9.8 mph 65 % 0 in
11:34 69.3 °F 57.2 °F 29.8 in WSW 8.7 mph 9.8 mph 65 % 0 in
11:39 69.1 °F 55.4 °F 29.8 in West 6.5 mph 9.8 mph 63 % 0 in
11:44 68.9 °F 55.4 °F 29.8 in West 10.5 mph 10.5 mph 61 % 0 in
11:49 69.3 °F 55.4 °F 29.8 in West 7.6 mph 12.5 mph 62 % 0 in
11:54 69.3 °F 55.4 °F 29.8 in West 8.5 mph 13 mph 61 % 0 in
11:59 69.1 °F 55.4 °F 29.8 in West 9.8 mph 13 mph 62 % 0 in
12:05 69.6 °F 55.4 °F 29.8 in West 12.5 mph 12.5 mph 62 % 0 in
12:10 69.8 °F 55.4 °F 29.8 in West 7.4 mph 12.5 mph 59 % 0 in
12:15 70 °F 55.4 °F 29.8 in WSW 11 mph 11 mph 61 % 0 in
12:20 70.5 °F 55.4 °F 29.8 in West 5.4 mph 11 mph 59 % 0 in
12:25 71.6 °F 57.2 °F 29.8 in WSW 5.8 mph 13.2 mph 60 % 0 in
12:30 71.1 °F 55.4 °F 29.8 in WSW 7.8 mph 13.2 mph 56 % 0 in
12:35 70.2 °F 53.6 °F 29.8 in West 11 mph 13 mph 55 % 0 in
12:40 69.8 °F 53.6 °F 29.8 in West 7.6 mph 12.3 mph 57 % 0 in
12:45 70.5 °F 55.4 °F 29.8 in WSW 6.3 mph 11 mph 58 % 0 in
12:50 70.5 °F 55.4 °F 29.8 in West 11 mph 13.6 mph 57 % 0 in
12:55 70.7 °F 53.6 °F 29.8 in West 8.7 mph 13.6 mph 53 % 0 in
13:00 70.3 °F 53.6 °F 29.8 in West 7.4 mph 10.7 mph 56 % 0 in
13:05 70 °F 53.6 °F 29.8 in WSW 3.6 mph 10.7 mph 57 % 0 in
13:10 69.3 °F 53.6 °F 29.8 in WSW 4.7 mph 9.8 mph 57 % 0 in
13:15 68.7 °F 51.8 °F 29.8 in WSW 5.8 mph 10.3 mph 55 % 0 in
13:20 68.4 °F 51.8 °F 29.8 in West 7.6 mph 10.3 mph 54 % 0 in
13:25 68.5 °F 51.8 °F 29.8 in SW 5.4 mph 10.7 mph 53 % 0 in
13:30 69.3 °F 53.6 °F 29.8 in WNW 3.4 mph 10.7 mph 56 % 0 in
13:31 69.4 °F 53.6 °F 29.8 in West 7.6 mph 10.7 mph 57 % 0 in
13:36 71.1 °F 55.4 °F 29.8 in SSW 7.8 mph 9.8 mph 56 % 0 in
13:41 71.1 °F 53.6 °F 29.8 in SW 4 mph 12.1 mph 54 % 0 in
13:46 71.8 °F 55.4 °F 29.8 in West 5.6 mph 12.1 mph 54 % 0 in
13:51 71.1 °F 53.6 °F 29.8 in SSW 4 mph 12.8 mph 54 % 0 in
13:56 71.2 °F 53.6 °F 29.8 in WSW 8.5 mph 12.8 mph 53 % 0 in
14:01 71.1 °F 53.6 °F 29.8 in WSW 7.6 mph 10.3 mph 52 % 0 in
14:06 71.1 °F 53.6 °F 29.8 in SW 5.8 mph 10.3 mph 53 % 0 in
14:11 71.1 °F 53.6 °F 29.7 in WSW 4 mph 9.2 mph 54 % 0 in
14:16 71.1 °F 53.6 °F 29.7 in WSW 8.1 mph 8.7 mph 52 % 0 in
14:22 71.4 °F 53.6 °F 29.7 in WSW 6.5 mph 9.6 mph 52 % 0 in
14:27 71.2 °F 51.8 °F 29.8 in WSW 6.5 mph 12.5 mph 50 % 0 in
14:31 70.7 °F 53.6 °F 29.8 in WSW 6.3 mph 12.5 mph 52 % 0 in
14:37 70.5 °F 51.8 °F 29.8 in West 5.4 mph 10.3 mph 52 % 0 in
14:42 70.7 °F 53.6 °F 29.8 in SW 6 mph 8.7 mph 52 % 0 in
14:47 70.7 °F 53.6 °F 29.8 in WSW 5.4 mph 9.6 mph 53 % 0 in
14:52 71.2 °F 51.8 °F 29.8 in WSW 12.1 mph 12.5 mph 51 % 0 in
14:57 72 °F 53.6 °F 29.8 in WSW 7.2 mph 15.4 mph 51 % 0 in
15:02 72.9 °F 51.8 °F 29.8 in WSW 7.6 mph 16.8 mph 48 % 0 in
15:07 73.4 °F 53.6 °F 29.8 in West 10.5 mph 16.8 mph 48 % 0 in
15:12 72.1 °F 51.8 °F 29.7 in West 12.5 mph 13 mph 47 % 0 in
15:17 71.6 °F 51.8 °F 29.7 in WSW 7.8 mph 13 mph 49 % 0 in
15:22 71.1 °F 51.8 °F 29.7 in West 7.8 mph 12.8 mph 49 % 0 in
15:27 71.6 °F 51.8 °F 29.8 in West 6 mph 12.8 mph 50 % 0 in
15:32 73 °F 51.8 °F 29.8 in West 7.8 mph 14.8 mph 48 % 0 in
15:37 73.2 °F 51.8 °F 29.8 in West 8.5 mph 15.4 mph 45 % 0 in
15:42 72.9 °F 50 °F 29.7 in West 6.9 mph 15.4 mph 44 % 0 in
15:47 73.4 °F 50 °F 29.7 in West 9.8 mph 14.8 mph 44 % 0 in
15:52 74.8 °F 50 °F 29.7 in SSW 6.9 mph 13.2 mph 42 % 0 in
15:57 75.4 °F 50 °F 29.7 in WSW 11 mph 15.2 mph 40 % 0 in
16:02 74.5 °F 50 °F 29.7 in WSW 7.6 mph 16.1 mph 41 % 0 in
16:07 74.5 °F 50 °F 29.7 in West 7.8 mph 16.1 mph 42 % 0 in
16:13 75.2 °F 50 °F 29.7 in WSW 13 mph 17.4 mph 41 % 0 in
16:18 75.6 °F 50 °F 29.7 in WSW 7.4 mph 17.9 mph 41 % 0 in
16:23 75.6 °F 50 °F 29.7 in WSW 10.1 mph 17.9 mph 41 % 0 in
16:28 75.2 °F 50 °F 29.7 in West 12.5 mph 14.8 mph 41 % 0 in
16:33 75.4 °F 50 °F 29.7 in WSW 10.1 mph 17 mph 41 % 0 in
16:38 75.7 °F 50 °F 29.7 in SSW 10.1 mph 22.1 mph 40 % 0 in
16:43 75.7 °F 50 °F 29.7 in West 17.2 mph 22.1 mph 39 % 0 in
16:48 75.2 °F 48.2 °F 29.7 in WNW 4 mph 17.4 mph 38 % 0 in
16:53 73.6 °F 48.2 °F 29.7 in WSW 10.1 mph 17.4 mph 41 % 0 in
16:54 73.9 °F 48.2 °F 29.7 in West 13.4 mph 15.9 mph 41 % 0 in
16:59 74.8 °F 50 °F 29.7 in WSW 15.2 mph 15.9 mph 41 % 0 in
17:04 75.2 °F 50 °F 29.7 in WSW 7.4 mph 15.9 mph 40 % 0 in
17:09 74.5 °F 48.2 °F 29.7 in West 6.3 mph 15.9 mph 40 % 0 in
17:14 73 °F 48.2 °F 29.8 in West 12.5 mph 15.7 mph 41 % 0 in
17:19 73.6 °F 48.2 °F 29.8 in WSW 6.5 mph 15.7 mph 41 % 0 in
17:24 74.8 °F 48.2 °F 29.8 in West 14.3 mph 17 mph 40 % 0 in
17:29 73.6 °F 48.2 °F 29.7 in West 11 mph 17 mph 40 % 0 in
17:34 74.1 °F 48.2 °F 29.7 in WSW 17.4 mph 17.4 mph 41 % 0 in
17:40 74.1 °F 48.2 °F 29.7 in West 12.8 mph 17.4 mph 41 % 0 in
17:44 74.3 °F 50 °F 29.7 in West 15.9 mph 15.9 mph 42 % 0 in
17:50 74.5 °F 50 °F 29.7 in WSW 6.5 mph 15.9 mph 42 % 0 in
17:55 74.7 °F 50 °F 29.7 in West 12.1 mph 15.4 mph 41 % 0 in
18:00 74.3 °F 48.2 °F 29.7 in West 10.5 mph 17.7 mph 40 % 0 in
18:05 73.8 °F 48.2 °F 29.7 in West 14.3 mph 19.5 mph 40 % 0 in
18:10 73.8 °F 50 °F 29.7 in WSW 17.7 mph 19.5 mph 42 % 0 in
18:15 73.8 °F 50 °F 29.8 in West 13.9 mph 17.7 mph 43 % 0 in
18:20 73.8 °F 50 °F 29.8 in WSW 13 mph 17.4 mph 43 % 0 in
18:25 73.2 °F 50 °F 29.8 in WSW 12.5 mph 17.7 mph 43 % 0 in
18:30 72.1 °F 48.2 °F 29.7 in West 13.2 mph 17.7 mph 43 % 0 in
18:35 72.5 °F 48.2 °F 29.7 in West 15.2 mph 17.4 mph 43 % 0 in
18:40 72.1 °F 48.2 °F 29.8 in WSW 12.5 mph 17.7 mph 43 % 0 in
18:45 71.8 °F 48.2 °F 29.8 in WSW 9.8 mph 17.7 mph 44 % 0 in
18:50 71.4 °F 50 °F 29.8 in WSW 10.3 mph 13.9 mph 45 % 0 in
18:52 71.2 °F 48.2 °F 29.8 in West 10.5 mph 13.9 mph 45 % 0 in
18:57 71.1 °F 48.2 °F 29.8 in WSW 15.7 mph 18.1 mph 45 % 0 in
19:02 70.3 °F 50 °F 29.8 in WSW 17 mph 18.1 mph 47 % 0 in
19:07 70.2 °F 50 °F 29.8 in West 14.5 mph 17 mph 48 % 0 in
19:12 69.8 °F 50 °F 29.8 in WSW 15.4 mph 15.7 mph 49 % 0 in
19:17 69.6 °F 51.8 °F 29.8 in WSW 16.6 mph 17.7 mph 51 % 0 in
19:22 69.6 °F 50 °F 29.8 in West 15.9 mph 22.4 mph 50 % 0 in
19:27 69.1 °F 50 °F 29.8 in West 15.4 mph 22.4 mph 50 % 0 in
19:32 68.5 °F 50 °F 29.8 in West 10.1 mph 21.9 mph 50 % 0 in
19:37 68.2 °F 48.2 °F 29.8 in West 14.5 mph 19.9 mph 50 % 0 in
19:42 68 °F 48.2 °F 29.8 in West 12.5 mph 19.9 mph 50 % 0 in
19:47 67.8 °F 50 °F 29.8 in SSW 10.5 mph 19.2 mph 51 % 0 in
19:53 67.6 °F 50 °F 29.8 in West 18.6 mph 18.6 mph 53 % 0 in
19:58 67.5 °F 50 °F 29.8 in WSW 10.5 mph 18.6 mph 54 % 0 in
20:03 67.3 °F 50 °F 29.8 in West 9.8 mph 15.9 mph 55 % 0 in
20:08 67.1 °F 50 °F 29.8 in WSW 10.5 mph 17.2 mph 54 % 0 in
20:13 67.1 °F 50 °F 29.8 in West 12.8 mph 17.2 mph 55 % 0 in
20:18 66.9 °F 50 °F 29.8 in West 7.6 mph 13.2 mph 56 % 0 in
20:23 66.7 °F 51.8 °F 29.8 in West 11 mph 17.2 mph 57 % 0 in
20:28 66.6 °F 51.8 °F 29.8 in WSW 14.8 mph 17.2 mph 59 % 0 in
20:33 66.4 °F 51.8 °F 29.8 in West 15.4 mph 17.7 mph 60 % 0 in
20:38 66.2 °F 53.6 °F 29.8 in WSW 12.8 mph 19.7 mph 62 % 0 in
20:43 66 °F 53.6 °F 29.8 in WSW 16.8 mph 19.7 mph 62 % 0 in
20:48 66 °F 53.6 °F 29.8 in WSW 14.8 mph 17.4 mph 63 % 0 in
20:53 65.8 °F 53.6 °F 29.8 in West 12.5 mph 15.2 mph 64 % 0 in
20:58 65.8 °F 53.6 °F 29.8 in WSW 9.8 mph 15.2 mph 64 % 0 in
21:03 65.7 °F 53.6 °F 29.8 in WSW 11.2 mph 17.7 mph 64 % 0 in
21:08 65.5 °F 53.6 °F 29.8 in WNW 11 mph 17.7 mph 63 % 0 in
21:13 65.1 °F 53.6 °F 29.8 in West 13.6 mph 15.9 mph 64 % 0 in
21:18 64.8 °F 53.6 °F 29.8 in West 10.7 mph 15.9 mph 65 % 0 in
21:23 64.4 °F 53.6 °F 29.8 in West 7.8 mph 15.7 mph 66 % 0 in
21:29 64.2 °F 53.6 °F 29.8 in West 12.5 mph 15.2 mph 66 % 0 in
21:34 63.9 °F 53.6 °F 29.8 in WSW 7.6 mph 17.7 mph 67 % 0 in
21:39 63.7 °F 53.6 °F 29.8 in WSW 7.4 mph 17.7 mph 68 % 0 in
21:44 63.3 °F 53.6 °F 29.8 in West 6.3 mph 9.8 mph 68 % 0 in
21:49 63 °F 53.6 °F 29.8 in SSW 6.5 mph 8.7 mph 69 % 0 in
21:54 62.6 °F 53.6 °F 29.8 in SW 8.5 mph 9.2 mph 70 % 0 in
21:59 62.6 °F 53.6 °F 29.8 in WSW 7.2 mph 9.6 mph 71 % 0 in
22:04 62.4 °F 53.6 °F 29.8 in WSW 6 mph 11 mph 71 % 0 in
22:09 62.2 °F 53.6 °F 29.8 in WSW 7.8 mph 14.8 mph 72 % 0 in
22:14 62.2 °F 53.6 °F 29.8 in SW 8.5 mph 14.8 mph 72 % 0 in
22:19 62.2 °F 53.6 °F 29.8 in WSW 7.6 mph 13 mph 72 % 0 in
22:24 61.9 °F 53.6 °F 29.8 in WSW 5.6 mph 11.4 mph 72 % 0 in
22:29 61.5 °F 53.6 °F 29.8 in WSW 5.6 mph 8.1 mph 72 % 0 in
22:34 61.3 °F 53.6 °F 29.8 in WSW 10.5 mph 11 mph 74 % 0 in
22:39 61.3 °F 53.6 °F 29.8 in SW 6.3 mph 11 mph 74 % 0 in
22:44 61.3 °F 53.6 °F 29.8 in WSW 6.5 mph 10.7 mph 75 % 0 in
22:49 61.2 °F 53.6 °F 29.8 in WSW 7.4 mph 10.5 mph 75 % 0 in
22:55 60.8 °F 53.6 °F 29.8 in WSW 3.8 mph 7.8 mph 75 % 0 in
23:00 60.6 °F 53.6 °F 29.8 in West 4.9 mph 7.4 mph 76 % 0 in
23:05 60.6 °F 53.6 °F 29.8 in West 8.7 mph 8.7 mph 77 % 0 in
23:10 60.6 °F 53.6 °F 29.8 in WSW 4.9 mph 8.7 mph 77 % 0 in
23:11 60.6 °F 53.6 °F 29.8 in WSW 6.3 mph 8.7 mph 78 % 0 in
23:16 60.3 °F 53.6 °F 29.8 in SW 3.8 mph 8.7 mph 77 % 0 in
23:21 59.9 °F 53.6 °F 29.8 in Calm   7.4 mph 77 % 0 in
23:26 59.7 °F 53.6 °F 29.8 in Calm   6.3 mph 78 % 0 in
23:31 59.4 °F 53.6 °F 29.8 in WSW 4.9 mph 7.2 mph 79 % 0 in
23:36 59.4 °F 53.6 °F 29.8 in Calm   7.2 mph 79 % 0 in
23:41 59.2 °F 53.6 °F 29.8 in SSW 4.7 mph 5.8 mph 80 % 0 in
23:46 59 °F 53.6 °F 29.8 in Calm   6.5 mph 81 % 0 in
23:51 58.8 °F 53.6 °F 29.8 in WSW 5.8 mph 6.5 mph 82 % 0 in
23:56 58.8 °F 53.6 °F 29.8 in WSW 4.9 mph 7.2 mph 82 % 0 in
Le Gheer Warneton
Courtoisie de Weather Underground - 2.25 mb

Mise a jour : 16-12-17 15:49:11
Généré par Cumulus 1.9.4 (1099)